FW0451 Weather Reports


time (UTC)temp
C
wind
direction
speed
KPH
gust
KPH
rain 1hr
cm
rain 24hr
cm
rain mn
cm
humidity
%
barometer
mb
20260503050032 7 19 0.0 4.8 0.00 0.00 0.00 81 1009.4
20260503044600 7 19 0.0 4.8 0.00 0.00 0.00 78 1009.2
20260503043027 7 20 0.0 1.6 0.00 0.00 0.00 81 1009.0
20260503041527 7 20 0.0 6.4 0.00 0.00 0.00 83 1008.8
20260503040027 7 19 0.0 3.2 0.00 0.00 0.00 82 1008.4
20260503034526 7 20 0.0 1.6 0.00 0.00 0.00 80 1008.5
20260503033025 7 20 1.6 6.4 0.00 0.00 0.00 82 1008.6
20260503031522 7 19 0.0 3.2 0.00 0.00 0.00 79 1008.4
20260503030018 8 20 0.0 3.2 0.00 0.00 0.00 77 1008.5
20260503024515 8 20 4.8 9.7 0.00 0.00 0.00 71 1008.4
20260503023012 9 19 1.6 8.0 0.00 0.00 0.00 71 1007.8
20260503021517 9 19 3.2 8.0 0.00 0.00 0.00 70 1007.3
20260503020010 10 19 3.2 14.5 0.00 0.00 0.00 64 1007.3
20260503014509 11 19 1.6 6.4 0.00 0.00 0.00 60 1007.3
20260503013009 11 20 0.0 1.6 0.00 0.00 0.00 61 1007.2
20260503011510 11 20 0.0 3.2 0.00 0.00 0.00 58 1007.1
20260503010008 11 20 4.8 11.3 0.00 0.00 0.00 60 1007.3
20260503004507 10 20 8.0 16.1 0.00 0.00 0.00 64 1007.2
20260503003005 10 20 16.1 30.6 0.00 0.00 0.00 64 1007.1
20260503001505 11 20 6.4 20.9 0.00 0.00 0.00 52 1007.6
20260503000007 12 20 4.8 16.1 0.00 0.00 0.00 51 1007.1
20260502234618 13 20 11.3 19.3 0.00 0.00 0.00 40 1006.6
20260502233057 13 20 11.3 38.6 0.00 0.00 0.00 41 1006.7
20260502231557 12 20 8.0 29.0 0.00 0.00 0.00 46 1007.1
20260502230055 13 20 20.9 51.5 0.00 0.00 0.00 40 1007.4
20260502224555 15 20 1.6 19.3 0.00 0.00 0.00 36 1007.2
20260502223102 15 20 9.7 22.5 0.00 0.00 0.00 34 1007.2
20260502221555 15 19 8.0 16.1 0.00 0.00 0.00 35 1007.5
20260502220056 15 19 8.0 20.9 0.00 0.00 0.00 34 1007.7
20260502214608 15 20 12.9 20.9 0.00 0.00 0.00 34 1007.8
20260502213105 15 20 8.0 20.9 0.00 0.00 0.00 33 1008.0
20260502211551 15 19 11.3 19.3 0.00 0.00 0.00 34 1008.2
20260502210044 16 19 3.2 16.1 0.00 0.00 0.00 31 1008.4
20260502204543 16 20 4.8 20.9 0.00 0.00 0.00 31 1008.6
20260502203106 16 20 14.5 24.1 0.00 0.00 0.00 31 1008.5
20260502201544 15 20 6.4 17.7 0.00 0.00 0.00 32 1008.5
20260502200047 16 20 12.9 25.7 0.00 0.00 0.00 31 1008.5
20260502194539 16 20 8.0 14.5 0.00 0.00 0.00 31 1008.7
20260502193038 15 20 8.0 30.6 0.00 0.00 0.00 31 1008.7
20260502191543 16 20 11.3 24.1 0.00 0.00 0.00 31 1009.0
20260502190037 15 20 8.0 27.4 0.00 0.00 0.00 31 1009.1
20260502184534 15 19 6.4 16.1 0.00 0.00 0.00 34 1009.0
20260502183034 15 20 6.4 16.1 0.00 0.00 0.00 32 1009.1
20260502181532 15 20 8.0 17.7 0.00 0.00 0.00 32 1009.2
20260502163036 13 20 4.8 27.4 0.00 0.00 0.00 33 1009.3
20260502161527 13 20 8.0 14.5 0.00 0.00 0.00 36 1009.2
20260502151512 11 20 4.8 11.3 0.00 0.00 0.00 41 1009.3
20260502130107 11 20 0.0 4.8 0.00 0.00 0.00 34 1008.7
20260502123117 11 19 0.0 9.7 0.00 0.00 0.00 32 1008.7
20260502121558 11 20 3.2 9.7 0.00 0.00 0.00 26 1008.7
20260502120111 11 20 8.0 19.3 0.00 0.00 0.00 24 1008.8
20260502114551 11 20 11.3 16.1 0.00 0.00 0.00 24 1008.8
20260502113051 11 20 1.6 6.4 0.00 0.00 0.00 23 1009.0
20260502111547 11 20 8.0 14.5 0.00 0.00 0.00 23 1009.0
20260502110046 11 20 11.3 16.1 0.00 0.00 0.00 23 1009.1
20260502104543 11 20 9.7 14.5 0.00 0.00 0.00 23 1009.1
20260502103043 11 20 8.0 16.1 0.00 0.00 0.00 23 1009.0
20260502101541 11 20 9.7 14.5 0.00 0.00 0.00 22 1009.1
20260502071515 12 20 11.3 19.3 0.00 0.00 0.00 22 1010.7
20260502070017 12 20 8.0 17.7 0.00 0.00 0.00 22 1010.8
20260502064511 12 20 9.7 19.3 0.00 0.00 0.00 21 1010.8
20260502063011 12 20 12.9 20.9 0.00 0.00 0.00 21 1010.7
20260502061511 12 20 12.9 20.9 0.00 0.00 0.00 20 1010.8
20260502060012 12 20 11.3 20.9 0.00 0.00 0.00 20 1010.9
20260502054510 12 20 11.3 20.9 0.00 0.00 0.00 20 1011.0
20260502053009 12 20 12.9 19.3 0.00 0.00 0.00 20 1010.9
20260502051508 12 20 8.0 17.7 0.00 0.00 0.00 20 1011.0